Location: Catacaguana
(10.4120°N, 66.7591°W)
Time: 05:36:55
(UTC+00:00)

ARIANE 5 R/B - Pass Details

Date: 27 May 2022
Orbit: 243 x 32186 km, 4.6° (Epoch: 24 June)

Event Time Altitude Azimuth Distance (km) Brightness Sun altitude
Rises 16:04:13 0° 267° (W) 14,893 8.5 78.2°
Reaches altitude 10° 16:17:11 10° 265° (W) 16,836 8.9 79.1°
Drops below altitude 10° 21:23:35 10° 262° (W) 34,576 11.7 17.8°
Maximum altitude 00:31:05 42° 194° (SSW) 2,137 4.1 -24.6°
Enters shadow 00:32:53 36° 161° (SSE) 1,841 3.5 -25.0°
